[[{"header":{"parameterUnit":"m.s-1","parameterCategory":2,"la1":30.2991,"la2":30.254,"lo1":-89.0895,"lo2":-89.0444,"dy":0.0017,"dx":0.0017,"nx":28,"ny":28,"refTime":"2023-10-31T03:00:00:Z","depth":"0","parameterNumber":2,"parameterNumberName":"U-component_of_CURRENTS"},"data":[0,0,0,0,0,0,0,0,0,0,0,0,0,0,0,0,0,0,0,0,0,0,0,0,0,0,0,0,0,0,0,0,0,0,0,0,0,0,0,0,0,0,0,0,0,0,0,0,0,0,0,0,0,0,0,0,0,0,0.1765,0.1765,0,0.1787,0.1787,0.1787,0.1786,0.1786,0.1786,0.1785,0.1767,0.1766,0.1766,0,0,0,0,0,0,0,0,0,0,0,0,0,0.1705,0.1706,0.1765,0.1765,0.1766,0.1787,0.1787,0.1787,0.1786,0.1786,0.1785,0.1785,0.1767,0.1766,0.1766,0,0,0,0,0,0,0,0,0,0,0,0,0,0.1728,0.1707,0.1765,0.1769,0.177,0.1787,0.1787,0.1787,0.1786,0.1786,0.1785,0.1785,0.1767,0.1766,0.1766,0.1766,0,0,0.1764,0.1764,0,0,0,0,0,0,0,0,0.1726,0.173,0.1768,0.1769,0.177,0.1786,0.176,0.1779,0.1786,0.1777,0.1785,0.1785,0.1771,0.177,0.1772,0.1765,0.1764,0.1764,0.1764,0.1763,0.1763,0,0,0,0,0,0,0,0.1725,0.1729,0.1771,0.1769,0.177,0.1765,0.1768,0.1763,0.1772,0.1778,0.1779,0.1785,0.1771,0.1772,0.1771,0.1764,0.1764,0.1764,0.1763,0.1763,0.1789,0.179,0,0,0,0,0,0,0.1728,0.1727,0.1771,0.1772,0.175,0.1767,0.177,0.1779,0.1773,0.1773,0.1785,0.1785,0.1774,0.1772,0.1771,0.1799,0.1764,0.1763,0.1763,0.1788,0.1789,0.179,0,0,0,0,0,0,0.1727,0.1732,0.177,0.1752,0.1757,0.1768,0.1778,0.1779,0.1786,0.1779,0.1778,0.1791,0.1773,0.1771,0.1777,0.1797,0.1763,0.1762,0.1786,0.1788,0.1789,0.1837,0,0,0,0,0,0,0.1725,0.1731,0.1736,0.1752,0.1758,0.1787,0.1779,0.178,0.1791,0.1791,0.1784,0.1782,0.1773,0.1778,0.1776,0.1796,0.1762,0.1785,0.1787,0.1789,0.1834,0.184,0.1845,0,0,0,0,0,0.1723,0.1731,0.1736,0.1742,0.1765,0.1788,0.179,0.1796,0.1792,0.1799,0.1797,0.1783,0.1789,0.1778,0.1776,0.1796,0.1784,0.1787,0.1789,0.1832,0.1839,0.1845,0,0,0,0,0,0,0.1703,0.1733,0.1738,0.1754,0.1773,0.1788,0.1796,0.18,0.1804,0.1803,0.1792,0.179,0.1803,0.1793,0.1781,0.181,0.1786,0.1788,0.182,0.1826,0.1831,0.1836,0.1761,0,0,0,0,0,0.1704,0.172,0.1745,0.1758,0.177,0.1784,0.1793,0.1799,0.1807,0.1809,0.1805,0.1804,0.1811,0.1813,0.1812,0.1825,0.1831,0.1838,0.1843,0.1848,0.1852,0.1878,0.1887,0.1798,0.1798,0.1797,0,0,0.1698,0.1718,0.1725,0.1755,0.177,0.1794,0.1788,0.1808,0.1825,0.1806,0.1822,0.182,0.1818,0.1835,0.184,0.183,0.1881,0.1851,0.1855,0.1856,0.1882,0.189,0.1898,0.1799,0.1799,0.1799,0,0,0.1702,0.1717,0.1735,0.1756,0.1786,0.1799,0.1808,0.1829,0.1836,0.1853,0.1848,0.1861,0.1861,0.1872,0.1876,0.191,0.1907,0.1911,0.1944,0.197,0.1978,0.1984,0.2022,0.2031,0.1916,0.1916,0.1916,0,0.1693,0.1724,0.1743,0.1769,0.1788,0.1805,0.183,0.1844,0.1862,0.1875,0.1863,0.1887,0.1882,0.1916,0.1929,0.1923,0.194,0.1919,0.1978,0.1984,0.199,0.2027,0.2037,0.1918,0.1918,0.1918,0.1918,0,0.1716,0.1741,0.1755,0.1797,0.1818,0.1843,0.1871,0.189,0.1898,0.1913,0.1942,0.1941,0.1958,0.1962,0.1955,0.2001,0.2001,0.198,0.1961,0.2002,0.2038,0.2048,0.1922,0.1921,0.192,0.192,0,0,0.1693,0.1758,0.1763,0.1789,0.1836,0.1856,0.1893,0.1933,0.1962,0.1974,0.2009,0.2023,0.2026,0.203,0.2029,0.2051,0.2111,0.2037,0.2037,0.2074,0.2184,0.2239,0.2255,0.2101,0.2103,0.2104,0.2199,0,0.1705,0.1758,0.1788,0.1835,0.1865,0.1897,0.193,0.1967,0.1996,0.2033,0.2045,0.2072,0.2052,0.2065,0.2087,0.2105,0.2136,0.2088,0.2138,0.214,0.2184,0.2267,0.2306,0.2398,0.2208,0.2209,0.221,0,0.1717,0.1754,0.1803,0.1863,0.1879,0.1905,0.1968,0.2002,0.206,0.2084,0.2119,0.2127,0.2172,0.2137,0.2201,0.2174,0.2185,0.2193,0.2197,0.2236,0.2213,0.2323,0.2422,0.2411,0.2225,0.2224,0.2223,0,0.1694,0.176,0.1801,0.1821,0.1891,0.1916,0.1952,0.2013,0.2057,0.212,0.2156,0.2199,0.2234,0.225,0.2279,0.2242,0.235,0.2298,0.236,0.2364,0.2401,0.2406,0.2495,0.234,0.234,0.234,0.2339,0,0.1695,0.1722,0.1792,0.1813,0.1858,0.1907,0.1962,0.2008,0.2086,0.2144,0.2178,0.2238,0.2264,0.2323,0.232,0.2399,0.2389,0.2395,0.2403,0.2422,0.2427,0.242,0.243,0.2343,0.2343,0.2342,0.2341,0,0.166,0.1708,0.1754,0.1826,0.1849,0.1878,0.1966,0.2009,0.2086,0.2167,0.2189,0.2293,0.2385,0.2419,0.2476,0.2477,0.2514,0.254,0.2574,0.2585,0.2618,0.2631,0.2681,0.2571,0.2627,0.2629,0.2631,0,0.1644,0.1668,0.1749,0.1775,0.1806,0.1861,0.19,0.1994,0.205,0.2201,0.2238,0.2367,0.2454,0.2591,0.2649,0.2705,0.2613,0.2742,0.2672,0.2662,0.268,0.2592,0.2484,0.2744,0.2746,0.2748,0.275,0,0.161,0.1642,0.1682,0.1742,0.1784,0.1836,0.1902,0.1952,0.2068,0.2151,0.2281,0.237,0.2566,0.269,0.2801,0.2819,0.2713,0.2786,0.2766,0.2793,0.2714,0.2596,0.2638,0.2769,0.2767,0.2765,0.2764,0.2764,0.1571,0.1593,0.1652,0.1702,0.175,0.1797,0.1817,0.1908,0.1999,0.2123,0.2264,0.2412,0.268,0.2872,0.2887,0.2981,0.2858,0.2928,0.295,0.2862,0.2747,0.2845,0.2985,0.2984,0.2983,0.2983,0.2983,0,0.1518,0.156,0.1609,0.1662,0.1684,0.1736,0.1805,0.1824,0.1899,0.2083,0.2207,0.2552,0.2773,0.2957,0.3185,0.3154,0.2982,0.3094,0.2971,0.2846,0.2953,0.2949,0.3099,0.3099,0.3099,0.3099,0.3099,0.3099,0.149,0.1519,0.1558,0.1582,0.1615,0.1617,0.164,0.1697,0.1812,0.2024,0.2239,0.2442,0.2877,0.3368,0.3481,0.339,0.3109,0.3118,0.2953,0.3073,0.3056,0.304,0.3034,0.3201,0.3201,0.2741,0.2738,0.2737]},{"header":{"parameterUnit":"m.s-1","parameterCategory":2,"la1":30.2991,"la2":30.254,"lo1":-89.0895,"lo2":-89.0444,"dy":0.0017,"dx":0.0017,"nx":28,"ny":28,"refTime":"2023-10-31T03:00:00:Z","depth":"0","parameterNumber":3,"parameterNumberName":"V-component_of_CURRENTS"},"data":[0,0,0,0,0,0,0,0,0,0,0,0,0,0,0,0,0,0,0,0,0,0,0,0,0,0,0,0,0,0,0,0,0,0,0,0,0,0,0,0,0,0,0,0,0,0,0,0,0,0,0,0,0,0,0,0,0,0,-0.0882,-0.0882,0,-0.0931,-0.0932,-0.0932,-0.0963,-0.0963,-0.0963,-0.0963,-0.0987,-0.0987,-0.0988,0,0,0,0,0,0,0,0,0,0,0,0,0,-0.088,-0.0879,-0.0881,-0.0882,-0.0882,-0.0931,-0.0932,-0.0932,-0.0963,-0.0963,-0.0963,-0.0963,-0.0987,-0.0987,-0.0988,0,0,0,0,0,0,0,0,0,0,0,0,0,-0.0901,-0.0879,-0.0881,-0.0902,-0.0904,-0.0931,-0.0932,-0.0933,-0.0963,-0.0963,-0.0963,-0.0963,-0.0986,-0.0987,-0.0988,-0.0995,0,0,-0.0991,-0.0992,0,0,0,0,0,0,0,0,-0.09,-0.0902,-0.0898,-0.0901,-0.0903,-0.0939,-0.094,-0.0952,-0.0963,-0.0943,-0.0963,-0.0963,-0.0967,-0.097,-0.0982,-0.0996,-0.0997,-0.0991,-0.0992,-0.0992,-0.0993,0,0,0,0,0,0,0,-0.0898,-0.09,-0.0903,-0.0899,-0.0902,-0.0931,-0.0934,-0.0943,-0.0955,-0.0944,-0.0946,-0.0949,-0.0969,-0.0981,-0.0983,-0.0997,-0.0991,-0.0992,-0.0993,-0.0993,-0.1006,-0.1006,0,0,0,0,0,0,-0.0885,-0.0898,-0.0901,-0.0904,-0.0899,-0.0931,-0.0934,-0.0929,-0.0956,-0.096,-0.0949,-0.095,-0.098,-0.0982,-0.0984,-0.0973,-0.0992,-0.0993,-0.0994,-0.1007,-0.1006,-0.1006,0,0,0,0,0,0,-0.0884,-0.0884,-0.0899,-0.0902,-0.0905,-0.093,-0.0925,-0.093,-0.0939,-0.0959,-0.0963,-0.0952,-0.098,-0.0982,-0.0986,-0.0975,-0.0994,-0.0995,-0.1007,-0.1007,-0.1006,-0.0965,0,0,0,0,0,0,-0.0884,-0.0884,-0.0878,-0.09,-0.0904,-0.0907,-0.0925,-0.0931,-0.094,-0.0942,-0.0963,-0.0966,-0.098,-0.0985,-0.0987,-0.0977,-0.0995,-0.1007,-0.1007,-0.1006,-0.0966,-0.0963,-0.096,0,0,0,0,0,-0.0884,-0.0871,-0.0878,-0.0878,-0.0895,-0.0907,-0.0912,-0.0932,-0.094,-0.0941,-0.0955,-0.0965,-0.0984,-0.0985,-0.0988,-0.0978,-0.1007,-0.1007,-0.1006,-0.0968,-0.0964,-0.096,0,0,0,0,0,0,-0.087,-0.0874,-0.0881,-0.0871,-0.0885,-0.0911,-0.0913,-0.0927,-0.0941,-0.0941,-0.0962,-0.0965,-0.0966,-0.0978,-0.098,-0.0981,-0.0997,-0.0997,-0.0967,-0.0963,-0.096,-0.0941,-0.0996,0,0,0,0,0,-0.0863,-0.0854,-0.0868,-0.0862,-0.0865,-0.0889,-0.0897,-0.0909,-0.0923,-0.093,-0.0945,-0.0959,-0.0968,-0.0969,-0.0982,-0.098,-0.0993,-0.0976,-0.0973,-0.097,-0.0958,-0.0971,-0.0968,-0.1004,-0.1004,-0.1004,0,0,-0.0857,-0.0858,-0.0854,-0.0858,-0.0871,-0.0867,-0.0894,-0.09,-0.0896,-0.0929,-0.0929,-0.0949,-0.0966,-0.0967,-0.0968,-0.0973,-0.0968,-0.097,-0.0967,-0.0956,-0.097,-0.0967,-0.0963,-0.1004,-0.1004,-0.1004,0,0,-0.0834,-0.0839,-0.0821,-0.0828,-0.0838,-0.0852,-0.0849,-0.087,-0.0879,-0.0884,-0.0905,-0.0917,-0.0933,-0.0943,-0.0949,-0.0935,-0.0954,-0.094,-0.0904,-0.0917,-0.0914,-0.0911,-0.0927,-0.0926,-0.0934,-0.0934,-0.0934,0,-0.0825,-0.0802,-0.082,-0.0807,-0.0803,-0.0838,-0.0819,-0.0836,-0.0857,-0.0854,-0.0876,-0.0898,-0.092,-0.0912,-0.0912,-0.0927,-0.0937,-0.0916,-0.0912,-0.091,-0.0908,-0.0924,-0.0924,-0.0932,-0.0933,-0.0933,-0.0933,0,-0.0785,-0.0772,-0.0763,-0.0752,-0.0755,-0.0746,-0.0765,-0.0771,-0.0788,-0.0803,-0.0807,-0.0844,-0.0853,-0.0867,-0.0886,-0.0878,-0.0892,-0.0909,-0.0919,-0.0901,-0.092,-0.0921,-0.0929,-0.093,-0.0931,-0.0931,0,0,-0.074,-0.0734,-0.0729,-0.0711,-0.0721,-0.0713,-0.071,-0.0707,-0.0691,-0.0731,-0.0714,-0.0752,-0.0776,-0.0785,-0.0815,-0.083,-0.0839,-0.0859,-0.086,-0.0869,-0.0866,-0.0901,-0.0905,-0.0853,-0.0853,-0.0853,-0.0886,0,-0.0698,-0.0655,-0.0666,-0.0626,-0.0602,-0.063,-0.0615,-0.0623,-0.0641,-0.0641,-0.0686,-0.0689,-0.0744,-0.0746,-0.0772,-0.0817,-0.0836,-0.0828,-0.0886,-0.0887,-0.0916,-0.0905,-0.0962,-0.0998,-0.0887,-0.0887,-0.0887,0,-0.064,-0.0619,-0.0569,-0.0544,-0.0534,-0.0519,-0.0495,-0.0493,-0.0512,-0.0526,-0.0551,-0.0592,-0.0622,-0.0675,-0.0743,-0.0733,-0.0793,-0.0837,-0.084,-0.0883,-0.0922,-0.0998,-0.1003,-0.1237,-0.0887,-0.0887,-0.0887,0,-0.0572,-0.0545,-0.0497,-0.0491,-0.0473,-0.0451,-0.0446,-0.045,-0.043,-0.0457,-0.0445,-0.0501,-0.052,-0.0599,-0.0706,-0.0719,-0.0783,-0.0816,-0.0904,-0.0907,-0.0972,-0.0981,-0.1205,-0.0863,-0.0863,-0.0863,-0.0862,0,-0.0505,-0.0465,-0.0461,-0.0431,-0.0368,-0.0386,-0.0328,-0.0336,-0.0331,-0.0295,-0.0381,-0.0364,-0.0501,-0.0562,-0.0669,-0.0783,-0.0757,-0.0891,-0.0915,-0.096,-0.0968,-0.1187,-0.132,-0.0864,-0.0864,-0.0863,-0.0863,0,-0.0422,-0.0425,-0.0367,-0.0343,-0.033,-0.0285,-0.0248,-0.0211,-0.0223,-0.0182,-0.0185,-0.0252,-0.034,-0.0481,-0.061,-0.0727,-0.0988,-0.0887,-0.0933,-0.0963,-0.1271,-0.1397,-0.1623,-0.1753,-0.099,-0.0991,-0.0992,0,-0.0369,-0.0332,-0.0292,-0.0258,-0.0241,-0.019,-0.015,-0.0151,-0.0113,-0.0105,-0.0073,-0.015,-0.0194,-0.0409,-0.0637,-0.0835,-0.1035,-0.1016,-0.106,-0.1296,-0.1455,-0.154,-0.1639,-0.1134,-0.1136,-0.1137,-0.1139,0,-0.0265,-0.0258,-0.0215,-0.0152,-0.0104,-0.0051,-0.0001,0.0048,0.005,0.0079,0.0102,0.0066,-0.0166,-0.0405,-0.0696,-0.085,-0.1235,-0.1054,-0.1292,-0.158,-0.1695,-0.1828,-0.1108,-0.1153,-0.1151,-0.115,-0.115,-0.1149,-0.0184,-0.014,-0.0098,-0.0036,0.0014,0.0079,0.0129,0.0178,0.0243,0.0275,0.0235,0.0173,-0.0198,-0.0613,-0.0857,-0.138,-0.1355,-0.1534,-0.1663,-0.1722,-0.1875,-0.1184,-0.1261,-0.126,-0.1259,-0.1259,-0.1258,0,-0.0082,-0.0052,0.001,0.0075,0.0134,0.0139,0.0223,0.0262,0.0336,0.0345,0.0344,0.0062,-0.0398,-0.0867,-0.1525,-0.1904,-0.2064,-0.2132,-0.2294,-0.2362,-0.1743,-0.1779,-0.198,-0.198,-0.198,-0.198,-0.1979,-0.1979,-0.0027,0.0046,0.0062,0.0164,0.0204,0.0273,0.0317,0.0372,0.0388,0.0344,0.024,0.0137,-0.0346,-0.1453,-0.2305,-0.2489,-0.2846,-0.2899,-0.3044,-0.2659,-0.2614,-0.2571,-0.2636,-0.3014,-0.3015,-0.3627,-0.3633,-0.3638]}],[{"header":{"parameterUnit":"m.s-1","parameterCategory":2,"la1":30.2991,"la2":30.254,"lo1":-89.0895,"lo2":-89.0444,"dy":0.0017,"dx":0.0017,"nx":28,"ny":28,"refTime":"2023-10-31T03:00:00:Z","depth":"2","parameterNumber":2,"parameterNumberName":"U-component_of_CURRENTS"},"data":[0,0,0,0,0,0,0,0,0,0,0,0,0,0,0,0,0,0,0,0,0,0,0,0,0,0,0,0,0,0,0,0,0,0,0,0,0,0,0,0,0,0,0,0,0,0,0,0,0,0,0,0,0,0,0,0,0,0,0.1767,0.1768,0,0.179,0.179,0.179,0.1789,0.1789,0.1789,0.1788,0.1771,0.177,0.177,0,0,0,0,0,0,0,0,0,0,0,0,0,0.1708,0.1709,0.1767,0.1768,0.1768,0.179,0.179,0.179,0.1789,0.1789,0.1788,0.1788,0.1771,0.177,0.177,0,0,0,0,0,0,0,0,0,0,0,0,0,0.173,0.1709,0.1767,0.1772,0.1773,0.179,0.179,0.179,0.1789,0.1789,0.1788,0.1788,0.1771,0.177,0.177,0.177,0,0,0.1768,0.1768,0,0,0,0,0,0,0,0,0.1729,0.1732,0.1771,0.1772,0.1773,0.1788,0.1763,0.1782,0.1789,0.178,0.1788,0.1788,0.1774,0.1774,0.1776,0.1769,0.1769,0.1768,0.1768,0.1767,0.1767,0,0,0,0,0,0,0,0.1728,0.1731,0.1774,0.1771,0.1772,0.1768,0.1771,0.1766,0.1776,0.1781,0.1782,0.1788,0.1774,0.1776,0.1775,0.1768,0.1768,0.1768,0.1767,0.1767,0.1793,0.1794,0,0,0,0,0,0,0.1731,0.173,0.1773,0.1775,0.1752,0.1769,0.1772,0.1782,0.1777,0.1777,0.1788,0.1788,0.1777,0.1776,0.1774,0.1803,0.1767,0.1767,0.1767,0.1792,0.1794,0.1795,0,0,0,0,0,0,0.1729,0.1734,0.1772,0.1754,0.1759,0.1771,0.1781,0.1782,0.1789,0.1783,0.1781,0.1794,0.1777,0.1775,0.1781,0.1801,0.1767,0.1766,0.1791,0.1793,0.1794,0.1842,0,0,0,0,0,0,0.1727,0.1734,0.1739,0.1755,0.176,0.179,0.1781,0.1783,0.1794,0.1794,0.1787,0.1785,0.1777,0.1782,0.178,0.18,0.1766,0.179,0.1792,0.1794,0.1839,0.1845,0.185,0,0,0,0,0,0.1725,0.1734,0.1739,0.1744,0.1768,0.1791,0.1793,0.1798,0.1794,0.1802,0.18,0.1786,0.1793,0.1782,0.178,0.18,0.1789,0.1791,0.1794,0.1836,0.1844,0.185,0,0,0,0,0,0,0.1706,0.1735,0.1741,0.1757,0.1776,0.1791,0.1799,0.1803,0.1807,0.1806,0.1795,0.1793,0.1807,0.1797,0.1785,0.1814,0.179,0.1792,0.1824,0.183,0.1836,0.184,0.1765,0,0,0,0,0,0.1707,0.1723,0.1748,0.1761,0.1773,0.1787,0.1795,0.1802,0.181,0.1812,0.1809,0.1808,0.1815,0.1817,0.1816,0.1829,0.1836,0.1843,0.1848,0.1853,0.1856,0.1883,0.1891,0.1802,0.1802,0.1802,0,0,0.1701,0.1721,0.1728,0.1758,0.1773,0.1797,0.1791,0.1811,0.1828,0.1809,0.1825,0.1824,0.1822,0.1839,0.1845,0.1834,0.1885,0.1856,0.1859,0.186,0.1886,0.1894,0.1902,0.1804,0.1804,0.1803,0,0,0.1706,0.172,0.1739,0.1759,0.1789,0.1802,0.1811,0.1832,0.1839,0.1856,0.1851,0.1864,0.1866,0.1876,0.188,0.1915,0.1911,0.1915,0.1948,0.1974,0.1982,0.1988,0.2025,0.2035,0.192,0.192,0.192,0,0.1696,0.1727,0.1746,0.1772,0.1791,0.1808,0.1833,0.1847,0.1865,0.1878,0.1866,0.1891,0.1886,0.192,0.1934,0.1928,0.1944,0.1923,0.1982,0.1988,0.1994,0.203,0.204,0.1923,0.1923,0.1922,0.1922,0,0.1719,0.1744,0.1758,0.18,0.1821,0.1845,0.1874,0.1893,0.1902,0.1916,0.1945,0.1944,0.1962,0.1966,0.1959,0.2005,0.2005,0.1984,0.1965,0.2006,0.2041,0.2051,0.1927,0.1926,0.1925,0.1924,0,0,0.1696,0.1762,0.1766,0.1792,0.1839,0.1859,0.1896,0.1936,0.1965,0.1977,0.2012,0.2027,0.2029,0.2034,0.2032,0.2054,0.2114,0.204,0.204,0.2077,0.2186,0.224,0.2255,0.2104,0.2106,0.2107,0.2201,0,0.1708,0.1761,0.1791,0.1838,0.1867,0.19,0.1933,0.1969,0.1998,0.2035,0.2048,0.2075,0.2055,0.2068,0.209,0.2108,0.2138,0.2091,0.214,0.2142,0.2185,0.2268,0.2033,0.2101,0.221,0.2211,0.2212,0,0.172,0.1757,0.1805,0.1865,0.1881,0.1908,0.197,0.2005,0.2062,0.2086,0.2122,0.2129,0.2174,0.214,0.2203,0.2176,0.2187,0.2195,0.2199,0.2237,0.2214,0.2075,0.2114,0.2228,0.2227,0.2225,0.2224,0,0.1697,0.1763,0.1803,0.1824,0.1894,0.1918,0.1954,0.2015,0.2059,0.2122,0.2158,0.2201,0.2236,0.2252,0.2281,0.2244,0.235,0.2299,0.236,0.2364,0.2168,0.2154,0.2341,0.2341,0.2341,0.2341,0.234,0,0.1697,0.1725,0.1794,0.1815,0.186,0.1909,0.1964,0.201,0.2087,0.2146,0.218,0.2239,0.2265,0.2324,0.2321,0.2399,0.239,0.2394,0.2402,0.2183,0.2169,0.2269,0.2259,0.2344,0.2343,0.2343,0.2342,0,0.1662,0.171,0.1756,0.1828,0.1851,0.188,0.1968,0.201,0.2088,0.2168,0.219,0.2294,0.2385,0.2419,0.2476,0.2476,0.2518,0.2538,0.2299,0.2279,0.2499,0.249,0.2618,0.262,0.2623,0.2625,0.2627,0,0.1646,0.167,0.1751,0.1777,0.1808,0.1863,0.1902,0.1996,0.2051,0.2202,0.2238,0.2367,0.2444,0.2581,0.2569,0.2607,0.2623,0.2452,0.2346,0.2538,0.2532,0.252,0.2508,0.2096,0.2093,0.2091,0.2089,0,0.1612,0.1644,0.1683,0.1744,0.1786,0.1838,0.1904,0.1953,0.2069,0.2145,0.2274,0.2354,0.2485,0.2453,0.2536,0.251,0.2429,0.2416,0.2663,0.2092,0.2062,0.2052,0.2054,0.2069,0.2071,0.2073,0.2074,0.2074,0.1573,0.1595,0.1654,0.1704,0.1751,0.1799,0.1819,0.1888,0.197,0.2046,0.22,0.2244,0.231,0.2327,0.2287,0.2248,0.2404,0.2291,0.229,0.2293,0.2246,0.2225,0.2253,0.2256,0.2259,0.2261,0.2263,0,0.1515,0.1562,0.1611,0.1663,0.1678,0.1737,0.1806,0.1798,0.1838,0.1934,0.2005,0.1916,0.1929,0.1994,0.19,0.195,0.1822,0.189,0.1684,0.1709,0.1729,0.1644,0.1496,0.1494,0.1492,0.149,0,0,0.1486,0.1511,0.155,0.1568,0.1607,0.1597,0.162,0.1624,0.1667,0.167,0.1678,0.1805,0.1943,0.1683,0.1675,0.1577,0.1612,0.151,0.2127,0.1908,0.1924,0.1975,0.1876,0,0,0,0,0]},{"header":{"parameterUnit":"m.s-1","parameterCategory":2,"la1":30.2991,"la2":30.254,"lo1":-89.0895,"lo2":-89.0444,"dy":0.0017,"dx":0.0017,"nx":28,"ny":28,"refTime":"2023-10-31T03:00:00:Z","depth":"2","parameterNumber":3,"parameterNumberName":"V-component_of_CURRENTS"},"data":[0,0,0,0,0,0,0,0,0,0,0,0,0,0,0,0,0,0,0,0,0,0,0,0,0,0,0,0,0,0,0,0,0,0,0,0,0,0,0,0,0,0,0,0,0,0,0,0,0,0,0,0,0,0,0,0,0,0,-0.0826,-0.0826,0,-0.0874,-0.0875,-0.0876,-0.0907,-0.0907,-0.0907,-0.0907,-0.0932,-0.0932,-0.0933,0,0,0,0,0,0,0,0,0,0,0,0,0,-0.0826,-0.0826,-0.0826,-0.0826,-0.0827,-0.0874,-0.0875,-0.0876,-0.0907,-0.0907,-0.0907,-0.0907,-0.0931,-0.0932,-0.0933,0,0,0,0,0,0,0,0,0,0,0,0,0,-0.0847,-0.0825,-0.0826,-0.0847,-0.0849,-0.0874,-0.0875,-0.0876,-0.0907,-0.0907,-0.0907,-0.0907,-0.0931,-0.0932,-0.0933,-0.0938,0,0,-0.0936,-0.0936,0,0,0,0,0,0,0,0,-0.0846,-0.0847,-0.0843,-0.0845,-0.0848,-0.0883,-0.0884,-0.0895,-0.0907,-0.0887,-0.0907,-0.0907,-0.0912,-0.0914,-0.0927,-0.0939,-0.094,-0.0936,-0.0937,-0.0937,-0.0937,0,0,0,0,0,0,0,-0.0844,-0.0846,-0.0847,-0.0844,-0.0846,-0.0876,-0.0878,-0.0887,-0.09,-0.0889,-0.0891,-0.0893,-0.0913,-0.0926,-0.0927,-0.0941,-0.0936,-0.0937,-0.0937,-0.0938,-0.095,-0.095,0,0,0,0,0,0,-0.0831,-0.0844,-0.0846,-0.0848,-0.0845,-0.0875,-0.0878,-0.0873,-0.09,-0.0904,-0.0893,-0.0894,-0.0924,-0.0926,-0.0928,-0.0918,-0.0937,-0.0938,-0.0938,-0.095,-0.095,-0.095,0,0,0,0,0,0,-0.083,-0.083,-0.0844,-0.0846,-0.085,-0.0875,-0.0869,-0.0874,-0.0884,-0.0903,-0.0907,-0.0897,-0.0924,-0.0927,-0.0931,-0.092,-0.0938,-0.0939,-0.0951,-0.095,-0.095,-0.0909,0,0,0,0,0,0,-0.083,-0.0829,-0.0824,-0.0845,-0.0849,-0.0851,-0.0869,-0.0875,-0.0884,-0.0887,-0.0908,-0.091,-0.0924,-0.0929,-0.0932,-0.0921,-0.094,-0.0951,-0.095,-0.095,-0.0911,-0.0907,-0.0905,0,0,0,0,0,-0.083,-0.0817,-0.0824,-0.0824,-0.084,-0.085,-0.0855,-0.0875,-0.0884,-0.0885,-0.09,-0.091,-0.0928,-0.093,-0.0933,-0.0922,-0.0951,-0.0951,-0.095,-0.0912,-0.0908,-0.0905,0,0,0,0,0,0,-0.0817,-0.082,-0.0827,-0.0817,-0.083,-0.0855,-0.0857,-0.0871,-0.0886,-0.0886,-0.0907,-0.091,-0.0911,-0.0923,-0.0924,-0.0926,-0.0941,-0.0941,-0.0911,-0.0908,-0.0905,-0.0886,-0.0941,0,0,0,0,0,-0.0811,-0.0801,-0.0814,-0.0807,-0.081,-0.0834,-0.0842,-0.0854,-0.0868,-0.0875,-0.089,-0.0904,-0.0913,-0.0914,-0.0927,-0.0925,-0.0937,-0.0921,-0.0917,-0.0915,-0.0902,-0.0916,-0.0912,-0.0948,-0.0948,-0.0948,0,0,-0.0805,-0.0805,-0.08,-0.0804,-0.0817,-0.0812,-0.0839,-0.0845,-0.0841,-0.0874,-0.0874,-0.0894,-0.0911,-0.0911,-0.0912,-0.0918,-0.0913,-0.0914,-0.0911,-0.09,-0.0915,-0.0911,-0.0908,-0.0948,-0.0948,-0.0948,0,0,-0.0782,-0.0787,-0.0769,-0.0775,-0.0785,-0.0798,-0.0795,-0.0816,-0.0824,-0.083,-0.0851,-0.0863,-0.0878,-0.0888,-0.0894,-0.088,-0.0899,-0.0885,-0.0849,-0.0862,-0.0859,-0.0857,-0.0873,-0.0872,-0.0879,-0.0879,-0.0879,0,-0.0774,-0.075,-0.0768,-0.0754,-0.075,-0.0785,-0.0765,-0.0782,-0.0802,-0.08,-0.0822,-0.0844,-0.0866,-0.0857,-0.0857,-0.0872,-0.0882,-0.0861,-0.0857,-0.0855,-0.0853,-0.0871,-0.087,-0.0877,-0.0877,-0.0878,-0.0878,0,-0.0734,-0.072,-0.0712,-0.07,-0.0702,-0.0693,-0.0711,-0.0717,-0.0735,-0.075,-0.0754,-0.0791,-0.08,-0.0813,-0.0832,-0.0824,-0.0838,-0.0855,-0.0864,-0.0847,-0.0867,-0.0867,-0.0874,-0.0875,-0.0876,-0.0876,0,0,-0.069,-0.0682,-0.0677,-0.0659,-0.0668,-0.066,-0.0657,-0.0653,-0.0638,-0.0677,-0.0661,-0.0698,-0.0723,-0.0732,-0.0762,-0.0777,-0.0786,-0.0805,-0.0807,-0.0816,-0.0814,-0.0849,-0.0853,-0.08,-0.08,-0.0799,-0.0835,0,-0.0648,-0.0604,-0.0614,-0.0575,-0.055,-0.0577,-0.0563,-0.0569,-0.0588,-0.0588,-0.0633,-0.0636,-0.069,-0.0694,-0.0719,-0.0764,-0.0783,-0.0774,-0.0833,-0.0835,-0.0864,-0.0854,-0.0757,-0.0782,-0.0835,-0.0835,-0.0835,0,-0.0591,-0.0569,-0.0518,-0.0493,-0.0483,-0.0468,-0.0443,-0.0442,-0.046,-0.0474,-0.0499,-0.054,-0.057,-0.0623,-0.0691,-0.0681,-0.0741,-0.0785,-0.0788,-0.0832,-0.087,-0.0808,-0.0781,-0.0836,-0.0836,-0.0836,-0.0836,0,-0.0524,-0.0496,-0.0448,-0.0441,-0.0423,-0.0401,-0.0396,-0.04,-0.038,-0.0406,-0.0395,-0.0451,-0.047,-0.0549,-0.0655,-0.0669,-0.0733,-0.0765,-0.0854,-0.0857,-0.0791,-0.079,-0.0812,-0.0812,-0.0812,-0.0812,-0.0812,0,-0.0457,-0.0418,-0.0412,-0.0383,-0.032,-0.0337,-0.028,-0.0287,-0.0282,-0.0247,-0.0332,-0.0315,-0.0452,-0.0513,-0.0619,-0.0734,-0.0708,-0.0841,-0.0865,-0.0777,-0.0774,-0.0833,-0.0835,-0.0814,-0.0813,-0.0813,-0.0813,0,-0.0376,-0.0378,-0.032,-0.0295,-0.0283,-0.0238,-0.0202,-0.0165,-0.0176,-0.0136,-0.0139,-0.0205,-0.0293,-0.0433,-0.0563,-0.0679,-0.079,-0.0839,-0.0733,-0.0745,-0.0916,-0.0916,-0.0941,-0.0942,-0.0943,-0.0944,-0.0945,0,-0.0324,-0.0287,-0.0247,-0.0213,-0.0196,-0.0145,-0.0105,-0.0106,-0.0068,-0.006,-0.0028,-0.0106,-0.0143,-0.0357,-0.0533,-0.0716,-0.0793,-0.0811,-0.0833,-0.0907,-0.0928,-0.0925,-0.0923,-0.0726,-0.0725,-0.0725,-0.0724,0,-0.0221,-0.0214,-0.0171,-0.0109,-0.0062,-0.0008,0.0042,0.0091,0.0093,0.0129,0.0151,0.0122,-0.0063,-0.0216,-0.0488,-0.0612,-0.0778,-0.0805,-0.0882,-0.0724,-0.0712,-0.0731,-0.0734,-0.0717,-0.0718,-0.0718,-0.0718,-0.0719,-0.0142,-0.0098,-0.0056,0.0005,0.0055,0.012,0.017,0.0246,0.032,0.0397,0.0326,0.0322,0.0098,-0.0182,-0.0424,-0.0684,-0.0706,-0.0819,-0.0818,-0.0818,-0.0802,-0.0795,-0.0812,-0.0813,-0.0814,-0.0815,-0.0816,0,-0.0025,-0.0012,0.005,0.0114,0.0192,0.0178,0.0262,0.0347,0.0463,0.0531,0.0568,0.0427,0.0224,-0.0058,-0.0396,-0.0651,-0.0634,-0.0765,-0.0682,-0.0687,-0.0692,-0.0667,-0.0642,-0.0643,-0.0643,-0.0644,0,0,0.0033,0.0113,0.0129,0.0238,0.0264,0.0367,0.0412,0.0543,0.0627,0.0745,0.0755,0.0714,0.034,0.0119,-0.0207,-0.043,-0.0508,-0.047,-0.0576,-0.0443,-0.0445,-0.0683,-0.0646,0,0,0,0,0]}],[{"header":{"parameterUnit":"m.s-1","parameterCategory":2,"la1":30.2991,"la2":30.254,"lo1":-89.0895,"lo2":-89.0444,"dy":0.0017,"dx":0.0017,"nx":28,"ny":28,"refTime":"2023-10-31T03:00:00:Z","depth":"4","parameterNumber":2,"parameterNumberName":"U-component_of_CURRENTS"},"data":[0,0,0,0,0,0,0,0,0,0,0,0,0,0,0,0,0,0,0,0,0,0,0,0,0,0,0,0,0,0,0,0,0,0,0,0,0,0,0,0,0,0,0,0,0,0,0,0,0,0,0,0,0,0,0,0,0,0,0.1146,0.1147,0,0.1202,0.1203,0.1203,0.1248,0.1249,0.1249,0.125,0.1309,0.131,0.1311,0,0,0,0,0,0,0,0,0,0,0,0,0,0.1035,0.1037,0.1146,0.1147,0.1148,0.1202,0.1203,0.1203,0.1248,0.1249,0.125,0.1251,0.1309,0.131,0.1311,0,0,0,0,0,0,0,0,0,0,0,0,0,0.1083,0.1037,0.1146,0.118,0.1183,0.1202,0.1203,0.1203,0.1248,0.1249,0.125,0.1251,0.1309,0.131,0.1311,0.1296,0,0,0.1315,0.1316,0,0,0,0,0,0,0,0,0.108,0.1087,0.1174,0.1177,0.1182,0.1222,0.1186,0.1236,0.1247,0.1219,0.125,0.1252,0.1282,0.1285,0.1288,0.1299,0.1301,0.1315,0.1316,0.1316,0.1317,0,0,0,0,0,0,0,0.1077,0.1084,0.1165,0.1175,0.118,0.1178,0.1186,0.1195,0.1241,0.1222,0.1226,0.1238,0.1284,0.1287,0.129,0.1302,0.1315,0.1316,0.1317,0.1318,0.1402,0.1404,0,0,0,0,0,0,0.1078,0.1081,0.1163,0.1167,0.1137,0.1179,0.1188,0.1205,0.1241,0.1248,0.1237,0.124,0.1284,0.1289,0.1292,0.1363,0.1316,0.1318,0.1318,0.1401,0.1403,0.1404,0,0,0,0,0,0,0.1076,0.1085,0.1161,0.1128,0.1138,0.118,0.1199,0.1206,0.1239,0.1253,0.126,0.1266,0.1285,0.1291,0.1333,0.1363,0.1318,0.1319,0.1399,0.1402,0.1404,0.1449,0,0,0,0,0,0,0.1072,0.1084,0.1105,0.1128,0.114,0.1192,0.1199,0.1206,0.1244,0.1249,0.128,0.1285,0.1287,0.1331,0.1334,0.1364,0.132,0.1397,0.14,0.1403,0.1446,0.1453,0.1459,0,0,0,0,0,0.1068,0.1089,0.1105,0.1116,0.1165,0.1194,0.1199,0.123,0.1244,0.1263,0.129,0.1285,0.1351,0.1333,0.1337,0.1367,0.1396,0.1399,0.1403,0.1443,0.1452,0.1459,0,0,0,0,0,0,0.1049,0.1097,0.1115,0.115,0.118,0.1203,0.1227,0.1244,0.1278,0.1292,0.1301,0.1308,0.1357,0.1356,0.1336,0.1401,0.1374,0.1378,0.1404,0.1412,0.1418,0.1416,0.1321,0,0,0,0,0,0.1055,0.109,0.1125,0.1156,0.1174,0.1204,0.1224,0.1246,0.1275,0.1293,0.1315,0.1342,0.1367,0.1386,0.1405,0.1436,0.1437,0.146,0.1466,0.1471,0.1474,0.1499,0.1508,0.1415,0.1415,0.1415,0,0,0.1056,0.1088,0.1108,0.1156,0.1182,0.1211,0.1219,0.1259,0.129,0.1292,0.1347,0.1366,0.1381,0.1423,0.1444,0.143,0.1501,0.1476,0.148,0.1479,0.1504,0.1513,0.1521,0.1418,0.1417,0.1417,0,0,0.1069,0.1105,0.1137,0.1165,0.1216,0.1233,0.1252,0.1292,0.1321,0.1368,0.1382,0.1421,0.1458,0.1476,0.1488,0.154,0.1534,0.1552,0.1583,0.1608,0.1616,0.1622,0.1643,0.1651,0.1554,0.1555,0.1555,0,0.107,0.1116,0.1148,0.1184,0.1213,0.1247,0.1281,0.1309,0.1361,0.1389,0.1396,0.1467,0.1481,0.1529,0.1552,0.1554,0.1566,0.1551,0.1616,0.1622,0.1628,0.1648,0.1656,0.1557,0.1557,0.1557,0.1556,0,0.11,0.1144,0.1165,0.1223,0.1254,0.1292,0.1333,0.1374,0.1412,0.144,0.1506,0.1529,0.1572,0.1584,0.1585,0.164,0.1635,0.162,0.1593,0.164,0.1658,0.1666,0.1561,0.156,0.1559,0.1559,0,0,0.1085,0.117,0.1182,0.1218,0.1282,0.1309,0.1365,0.1422,0.1466,0.1515,0.1571,0.1617,0.1637,0.1652,0.1663,0.1684,0.1739,0.1676,0.1676,0.169,0.18,0.171,0.1709,0.1739,0.1741,0.1742,0.1797,0,0.1104,0.1174,0.1212,0.1278,0.1315,0.1364,0.141,0.1466,0.1516,0.1576,0.1612,0.1668,0.1661,0.1694,0.1715,0.1737,0.1761,0.1725,0.1756,0.1757,0.1667,0.1715,0.1746,0.1803,0.1805,0.1806,0.1807,0,0.1121,0.117,0.1237,0.1317,0.1338,0.1381,0.1466,0.1514,0.1593,0.1633,0.1691,0.1722,0.1779,0.1759,0.1817,0.1798,0.1807,0.1812,0.1814,0.1716,0.1681,0.1745,0.1821,0.182,0.1818,0.1818,0.1817,0,0.1097,0.1186,0.1244,0.1272,0.1362,0.1407,0.1459,0.1538,0.159,0.168,0.1726,0.1786,0.1835,0.1854,0.1879,0.1858,0.1929,0.1897,0.1822,0.1816,0.1859,0.1851,0.1933,0.1933,0.1932,0.1932,0.1932,0,0.1095,0.1146,0.1244,0.1276,0.1347,0.1411,0.1492,0.1548,0.1636,0.1694,0.176,0.181,0.1863,0.191,0.1908,0.1895,0.1958,0.1836,0.1826,0.1879,0.1872,0.1865,0.1856,0.1934,0.1934,0.1933,0.1933,0,0.1062,0.1128,0.12,0.1305,0.1341,0.1395,0.1509,0.1558,0.1648,0.1726,0.1761,0.1854,0.1909,0.1948,0.199,0.1931,0.1927,0.1906,0.1977,0.1969,0.1788,0.1781,0.1817,0.1814,0.1812,0.181,0.1808,0,0.105,0.1087,0.121,0.1253,0.1307,0.1396,0.1449,0.1554,0.1599,0.1737,0.1759,0.1864,0.191,0.1894,0.1941,0.1938,0.1912,0.1894,0.1818,0.179,0.1778,0.1774,0.1771,0.1804,0.1804,0.1803,0.1803,0,0.1022,0.1079,0.1136,0.1225,0.1294,0.1362,0.1445,0.1471,0.1583,0.1679,0.172,0.1752,0.1814,0.1835,0.1855,0.1845,0.1892,0.1869,0.1873,0.1801,0.1775,0.1765,0.1764,0.1795,0.1796,0.1797,0.1797,0,0.1001,0.1033,0.1115,0.1182,0.1261,0.1301,0.1357,0.1407,0.1466,0.1597,0.1614,0.1713,0.1803,0.179,0.1809,0.1796,0.1755,0.1677,0.169,0.1699,0.1633,0.1583,0.1542,0,0,0,0,0,0.0971,0.1,0.1063,0.1129,0.1199,0.1246,0.1336,0.1388,0.1492,0.1482,0.154,0.1587,0.162,0.1675,0.1635,0.176,0.1765,0.1706,0.1684,0.1751,0.176,0.1693,0,0,0,0,0,0,0.0952,0.101,0.104,0.1065,0.1094,0.1162,0.1216,0.129,0.1284,0.1391,0.1415,0.1495,0.1548,0.1625,0.1606,0.1621,0.1574,0.1768,0.1764,0.1746,0.1754,0.1762,0.1696,0,0,0,0,0]},{"header":{"parameterUnit":"m.s-1","parameterCategory":2,"la1":30.2991,"la2":30.254,"lo1":-89.0895,"lo2":-89.0444,"dy":0.0017,"dx":0.0017,"nx":28,"ny":28,"refTime":"2023-10-31T03:00:00:Z","depth":"4","parameterNumber":3,"parameterNumberName":"V-component_of_CURRENTS"},"data":[0,0,0,0,0,0,0,0,0,0,0,0,0,0,0,0,0,0,0,0,0,0,0,0,0,0,0,0,0,0,0,0,0,0,0,0,0,0,0,0,0,0,0,0,0,0,0,0,0,0,0,0,0,0,0,0,0,0,0.0289,0.0289,0,0.0258,0.0258,0.0258,0.0239,0.0238,0.0238,0.0237,0.0221,0.0221,0.0221,0,0,0,0,0,0,0,0,0,0,0,0,0,0.0345,0.0344,0.0289,0.0289,0.0288,0.0258,0.0258,0.0258,0.0239,0.0238,0.0238,0.0237,0.0221,0.0221,0.0221,0,0,0,0,0,0,0,0,0,0,0,0,0,0.0321,0.0344,0.0289,0.0272,0.027,0.0258,0.0258,0.0258,0.0239,0.0238,0.0238,0.0237,0.0221,0.0221,0.0221,0.0232,0,0,0.0221,0.0221,0,0,0,0,0,0,0,0,0.0322,0.0319,0.0276,0.0274,0.0271,0.0249,0.0272,0.0249,0.0239,0.0254,0.0237,0.0237,0.023,0.0229,0.0229,0.0231,0.0231,0.0221,0.0221,0.0221,0.0221,0,0,0,0,0,0,0,0.0324,0.0321,0.028,0.0275,0.0272,0.0271,0.0267,0.0268,0.0249,0.0253,0.025,0.0242,0.0229,0.0229,0.0229,0.023,0.0221,0.0221,0.0221,0.0221,0.0208,0.0208,0,0,0,0,0,0,0.0322,0.0322,0.0281,0.0279,0.0292,0.027,0.0266,0.0259,0.0248,0.0245,0.0243,0.0241,0.023,0.0229,0.0228,0.0221,0.0221,0.0221,0.022,0.0208,0.0208,0.0208,0,0,0,0,0,0,0.0323,0.0318,0.0282,0.0297,0.0292,0.0269,0.0262,0.0259,0.0252,0.024,0.0237,0.0239,0.0229,0.0228,0.0225,0.022,0.022,0.022,0.0209,0.0208,0.0208,0.0219,0,0,0,0,0,0,0.0325,0.0319,0.0321,0.0297,0.0291,0.0277,0.0262,0.0259,0.0247,0.0245,0.0236,0.0234,0.0229,0.0225,0.0225,0.022,0.022,0.0209,0.0208,0.0208,0.0219,0.0219,0.0219,0,0,0,0,0,0.0327,0.0333,0.0321,0.0317,0.0292,0.0277,0.0275,0.0258,0.0247,0.025,0.024,0.0234,0.0221,0.0226,0.0225,0.022,0.0209,0.0209,0.0208,0.0219,0.0219,0.0219,0,0,0,0,0,0,0.0366,0.0331,0.0317,0.0315,0.0296,0.0272,0.0275,0.0258,0.0252,0.0251,0.0237,0.0235,0.023,0.0224,0.0229,0.0213,0.0212,0.0211,0.022,0.022,0.022,0.0218,0.022,0,0,0,0,0,0.0373,0.0365,0.0332,0.0332,0.0323,0.0298,0.0291,0.0276,0.0262,0.0259,0.0248,0.0237,0.0228,0.0224,0.0219,0.0216,0.0191,0.0209,0.0209,0.021,0.0207,0.0162,0.0157,0.0206,0.0206,0.0206,0,0,0.0389,0.0368,0.0365,0.0339,0.0326,0.0317,0.0294,0.0283,0.0276,0.0259,0.0255,0.0241,0.0228,0.0222,0.0218,0.0216,0.0182,0.0209,0.0209,0.0206,0.0161,0.0156,0.0151,0.0205,0.0205,0.0205,0,0,0.0411,0.0397,0.0394,0.0379,0.0352,0.0337,0.0332,0.0304,0.0293,0.0283,0.0266,0.0248,0.024,0.0224,0.0215,0.0213,0.0186,0.0209,0.0207,0.0164,0.0159,0.0155,0.0116,0.0108,0.0207,0.0207,0.0207,0,0.043,0.0417,0.0394,0.0385,0.0374,0.0345,0.0339,0.0329,0.0303,0.0291,0.0284,0.0247,0.0239,0.0217,0.0214,0.0213,0.0183,0.021,0.0163,0.0158,0.0154,0.0115,0.0106,0.0208,0.0207,0.0207,0.0207,0,0.044,0.0434,0.0434,0.041,0.0401,0.0393,0.0366,0.0357,0.0336,0.0314,0.0285,0.0264,0.0236,0.0229,0.0222,0.0185,0.0173,0.017,0.0163,0.0149,0.0109,0.01,0.0208,0.0208,0.0208,0.0208,0,0,0.0462,0.0443,0.0442,0.0434,0.0409,0.0401,0.0394,0.0369,0.0357,0.0325,0.0297,0.0272,0.0244,0.0232,0.0212,0.0174,0.0119,0.0159,0.0156,0.0121,0.0019,0.0022,0.0012,0.0104,0.0102,0.0101,0.0004,0,0.0471,0.0466,0.0451,0.045,0.0442,0.0419,0.0415,0.0391,0.0367,0.0338,0.0293,0.0267,0.025,0.0231,0.0189,0.0143,0.0095,0.0146,0.0037,0.0034,0.0039,0.0002,0.0096,-0.0004,-0.0006,-0.0007,-0.0009,0,0.0472,0.0468,0.0469,0.0458,0.0453,0.0451,0.043,0.042,0.0379,0.0358,0.0313,0.0277,0.0221,0.0206,0.0102,0.0134,0.0073,0.0031,0.0026,0.0019,0.002,0.0012,-0.0026,-0.0024,-0.0023,-0.0022,-0.0021,0,0.0481,0.0475,0.0478,0.0473,0.0461,0.0458,0.045,0.0423,0.0417,0.0364,0.0348,0.0273,0.0236,0.015,0.0069,0.0077,-0.005,-0.0049,-0.0108,-0.0109,-0.0086,-0.008,-0.0141,-0.0141,-0.014,-0.014,-0.014,0,0.0481,0.0483,0.0484,0.0482,0.0488,0.0471,0.0471,0.0453,0.0429,0.0421,0.0356,0.0331,0.0219,0.0139,0.0058,-0.0051,-0.0064,-0.0121,-0.0139,-0.0079,-0.0071,-0.0093,-0.0086,-0.0144,-0.0143,-0.0142,-0.0142,0,0.0482,0.0483,0.0488,0.0488,0.0491,0.0492,0.0498,0.0496,0.0472,0.0457,0.0441,0.0363,0.0261,0.0148,0.0008,-0.0057,-0.0163,-0.0203,-0.0132,-0.0142,-0.0194,-0.0185,-0.0287,-0.0287,-0.0288,-0.0289,-0.0289,0,0.0477,0.0481,0.0499,0.0509,0.051,0.0518,0.0526,0.0517,0.0522,0.0483,0.0476,0.0377,0.0313,0.0121,0.0,-0.0174,-0.0193,-0.0256,-0.0229,-0.0204,-0.0212,-0.0202,-0.0193,-0.029,-0.029,-0.029,-0.0291,0,0.047,0.0484,0.0493,0.0521,0.0536,0.0556,0.0569,0.0578,0.0566,0.0549,0.0501,0.0395,0.0274,0.0128,-0.0013,-0.0132,-0.0217,-0.0263,-0.0263,-0.0238,-0.021,-0.0214,-0.0204,-0.0293,-0.0293,-0.0292,-0.0292,0,0.0471,0.0482,0.0505,0.0527,0.0555,0.0582,0.0587,0.059,0.0592,0.0556,0.0541,0.041,0.0334,0.0148,0.0024,-0.0099,-0.0129,-0.0164,-0.0169,-0.0168,-0.01,-0.0044,-0.0104,0,0,0,0,0,0.047,0.0486,0.0507,0.0534,0.0566,0.0588,0.0612,0.0616,0.0613,0.0587,0.0566,0.0457,0.0265,0.0182,0.0058,0.0004,-0.0156,-0.0146,-0.02,-0.0306,-0.0303,-0.0243,0,0,0,0,0,0,0.0468,0.0494,0.0506,0.0541,0.0566,0.0603,0.0623,0.0621,0.0608,0.0588,0.0492,0.0433,0.025,0.0343,0.0061,0.0021,-0.003,-0.0237,-0.0239,-0.0308,-0.0305,-0.0303,-0.0239,0,0,0,0,0]}]]